User: anonymous   Login
Location: Unspecified
(0.0000°N, 0.0000°E)
Time: 22:19:23
(UTC+00:00)
Language:

STARLINK-5880 - Orbit

View from above orbital plane
View from above orbital plane
View from above satellite
View from above satellite

Ground track
Ground track

The orbit is defined by the following mean orbital elements,

1 57220U          26145.50068185 +.00000000 +00000-0 +43763-4 0 00007
2 57220  43.0029 320.2612 0001608 268.1185  91.9482 15.26744358    06
Epoch (UTC): 25 May 2026 12:00:58
Eccentricity: 0.0001608
inclination: 43.0029°
perigee height: 484 km
apogee height: 487 km
right ascension of ascending node: 320.2612°
argument of perigee: 268.1185°
revolutions per day: 15.26744358
mean anomaly at epoch: 91.9482°

The dashed part of the orbit path shows where the satellite is in the earth's shadow,  

DLR